Location: Observatory
(52.1446°N, 0.4624°W)
Time: 13:51:06
(UTC+00:00)

ISS - Pass Details

Date: 23 March 2019
Orbit: 408 x 411 km, 51.6° (Epoch: 25 March)

Event Time Altitude Azimuth Distance (km) Brightness Sun altitude
Rises 19:19:08 0° 211° (SSW) 2,327 0.2 -9.8°
Reaches altitude 10° 19:21:35 10° 194° (SSW) 1,469 -1.0 -10.2°
Maximum altitude 19:24:02 20° 145° (SE) 1,025 -2.2 -10.5°
Enters shadow 19:25:11 17° 117° (ESE) 1,139 -2.2 -10.7°
